Regional Weather Roundup
Issued by NWS Sterling, VA

Home | Current Version | Previous Version | Graphics & Text | Print | Product List | Glossary On
Versions: 1 2 3 4 5 6 7 8 9 10 11 12 13 14 15 16 17 18 19 20 21 22 23 24 25 26 27 28 29 30 31 32 33 34 35 36 37 38 39 40 41 42 43 44 45 46 47 48 49 50
000
ASUS41 KLWX 280410
RWRLWX

REGIONAL WEATHER ROUNDUP
NATIONAL WEATHER SERVICE BALTIMORE MD/WASHINGTON DC
1100 PM EST THU NOV 27 2014

Note: "FAIR" indicates few or no clouds below 12,000 feet
with no significant weather and/or obstructions to visibility.
 TC=TEMPERATURE CELSIUS

 * =Non NWS site. Station does not report precipitation (e.g. rain,
    snow, etc.), thunder, or fog.

DCZ001-MDZ009-015-VAZ040>042-051-053>054-280500-
WASHINGTON METRO

CITY           SKY/WX    TMP DP  RH WIND       PRES   REMARKS
WASHINGTON NAT MOCLDY    41  27  57 NW9       30.18S
DULLES         PTCLDY    34  27  75 NW12      30.19R WCI  25
ANDREWS AFB    MOCLDY    38  28  65 W15       30.16R
FT BELVOIR     PTCLDY    37  27  66 W9        30.19R
QUANTICO       PTCLDY    34  29  82 NW5       30.21R
COLLEGE PARK*  CLOUDY    36  32  87 CALM      30.17S
LEESBURG*      PTCLDY    36  32  87 NW12G18   30.18S WCI  27
MANASSAS*      PTCLDY    36  30  80 NW8       30.19R
GAITHERSBURG*  PTCLDY    34  28  80 NW5       30.19S

$$

MDZ006>007-011-014-280500-
BALTIMORE METRO

CITY           SKY/WX    TMP DP  RH WIND       PRES   REMARKS
BWI AIRPORT    FLURRIES  37  31  78 W14G20    30.15S WCI  28
MD SCIENCE CTR   N/A     37  29  72 MISG      30.16R
MARTIN STATE   MOCLDY    36  32  87 CALM      30.16S
ANNAPOLIS      CLOUDY    38  30  73 NW6       30.16S
FORT MEADE*    CLOUDY    36  32  87 NW10      30.19R WCI  28

$$

MDZ012-015-019>023-280500-
MARYLAND EASTERN SHORE

CITY           SKY/WX    TMP DP  RH WIND       PRES   REMARKS
OCEAN CITY     CLEAR     32  27  81 NW6       30.14S
SALISBURY      CLEAR     32  27  81 CALM      30.15R
BAY BRIDGE AP*   N/A     37  30  75 W13       30.16S
CAMBRIDGE*     CLEAR     37  32  81 W5        30.15S
EASTON*        CLEAR     36  32  84 CALM      30.18S

$$

MDZ017>025-280500-
SOUTHERN MARYLAND

CITY           SKY/WX    TMP DP  RH WIND       PRES   REMARKS
PATUXENT RIVER CLOUDY    37  28  70 NW10      30.16S
ST INIGOES     MOCLDY    38  27  64 VRB3      30.17R
LEONARDTOWN*   CLOUDY    36  28  75 W6        30.18S

$$

MDZ003>005-280500-
NORTH CENTRAL MARYLAND

CITY           SKY/WX    TMP DP  RH WIND       PRES   REMARKS
FREDERICK*     PTCLDY    36  27  69 W7        30.20R
HAGERSTOWN APT MOCLDY    34  24  67 NW13      30.16R WCI  25
WESTMINSTER*   CLOUDY    34  30  86 W8        30.12S WCI  27

$$

MDZ501>502-280500-
WESTERN MARYLAND

CITY           SKY/WX    TMP DP  RH WIND       PRES   REMARKS
OAKLAND*       CLOUDY    21 N/A N/A W14G23    30.09S FOG     WCI   8
CUMBERLAND*    CLEAR     34  23  64 W12G21    30.23S WCI  25

$$

VAZ025>031-280500-
SHENANDOAH VALLEY

CITY           SKY/WX    TMP DP  RH WIND       PRES   REMARKS
WINCHESTER*    CLEAR     34  21  60 NW15      30.19R WCI  24
FRONT ROYAL*   CLOUDY    34  21  60 W9G23     30.19R WCI  26
LURAY*         CLOUDY    34  28  80 NW12      30.20R WCI  25
NEW MARKET*    CLOUDY    32  27  80 CALM      30.20R
STAUNTON*      PTCLDY    31  20  63 NW7       30.21S
WAYNESBORO*    CLOUDY    31  20  65 W8        30.18S WCI  23

$$

WVZ021-048>050-054>055-280500-
EASTERN WEST VIRGINIA PANHANDLE

CITY           SKY/WX    TMP DP  RH WIND       PRES   REMARKS
MARTINSBURG    PTCLDY    35  19  52 NW15      30.19R WCI  25
PETERSBURG*    CLOUDY    32  18  55 NW8       30.23S WCI  25

$$

VAZ036>039-050-280500-
CENTRAL FOOTHILLS

CITY           SKY/WX    TMP DP  RH WIND       PRES   REMARKS
CHARLOTTESVILL CLOUDY    35  23  61 VRB3      30.20R
CULPEPER*      PTCLDY    36  27  69 NW5       30.21R
ORANGE*        CLEAR     36  27  69 SW5       30.21S
GORDONSVILLE*  MOCLDY    33  24  67 SW3       30.20R
WARRENTON*     FAIR      34  31  88 NW8       30.19R WCI  28

$$

VAZ055>057-280500-
NORTH AND CENTRAL PIEDMONT

CITY           SKY/WX    TMP DP  RH WIND       PRES   REMARKS
FREDERICKSBRG* CLEAR     35  29  80 W3        30.19S
STAFFORD*      PTCLDY    28  28 100 CALM      30.24R

$$

NCZ024-NYZ072-PAZ021-071-VAZ022-071-280500-
OTHER REGIONAL OBSERVATIONS

CITY           SKY/WX    TMP DP  RH WIND       PRES   REMARKS
NEW YORK CITY  CLOUDY    36  24  62 NW10G17   30.08R WCI  28
PHILADELPHIA   CLEAR     31  24  75 W6        30.13R
PITTSBURGH     CLOUDY    29  24  82 W13       30.20S WCI  19
ROANOKE        MOCLDY    33  17  51 NW9       30.27R WCI  25
RICHMOND       PTCLDY    37  28  70 NW9       30.20R
RALEIGH        PTCLDY    37  25  61 CALM      30.25R

$$

ANZ530>537-280500-
MARINE OBSERVATIONS

STATION/POSITION TIME  TEMP    WIND        PRES
                       AIR SEA DIR/SP/G
                 (UTC) (F)     (DEG/KT/KT) (MB)
THOMAS PT LIGHT  0400   38 47  300/ 15/ 17 1022.1F
BALT KEY BRIDGE  0400   38     260/ 11/ 13 1020.9S
COVE POINT       0400   38     320/ 11/ 15 1021.2R
LEWISETTA        0400   41 47  320/ 11/ 14 1021.6R
SOLOMONS ISLAND  0400      48                N/A
PINEY POINT      0400          330/ 19/ 21   N/A

$$




USA.gov is the U.S. government's official web portal to all federal, state and local government web resources and services.